WAH721 KLAX-PHOG

Flight info

Callsign WAH721
Flight time 5h 23m
Altitude 36000
Route SUMMR2 DINTY DUETS R576 DIALO/N0466F380 R576 DENNS LNDHY1
Aircraft A339/H-SADE1E2E3GHIJ3J5M1P2RWXY/LB2D1

Departure

Time 2026-04-24 16:59
Airport Los Angeles International Airport (KLAX)

Arrival

Time 2026-04-24 22:22
Airport Kahului International Airport (PHOG)
Time Latitude Longitude Altitude Speed Heading
2026-04-24 16:28 33.93962 -118.40929 135 ft 0 kts 291°
2026-04-24 16:45 33.93958 -118.40916 135 ft 2 kts 291°
2026-04-24 16:46 33.93952 -118.40899 135 ft 2 kts 291°
2026-04-24 16:46 33.93947 -118.40882 135 ft 2 kts 290°
2026-04-24 16:46 33.93942 -118.40865 135 ft 2 kts 291°
2026-04-24 16:46 33.93937 -118.40848 135 ft 2 kts 270°
2026-04-24 16:47 33.93941 -118.40831 135 ft 2 kts 233°
2026-04-24 16:47 33.93952 -118.40819 135 ft 2 kts 200°
2026-04-24 16:47 33.93966 -118.40816 135 ft 2 kts 169°
2026-04-24 16:47 33.93981 -118.40820 135 ft 2 kts 171°
2026-04-24 16:48 33.93987 -118.40821 135 ft 0 kts 173°
2026-04-24 16:49 33.93986 -118.40821 135 ft 0 kts 173°
2026-04-24 16:50 33.93981 -118.40820 135 ft 1 kts 173°
2026-04-24 16:50 33.93958 -118.40816 135 ft 3 kts 173°
2026-04-24 16:50 33.93927 -118.40810 135 ft 4 kts 165°
2026-04-24 16:50 33.93899 -118.40790 135 ft 5 kts 147°
2026-04-24 16:51 33.93861 -118.40759 135 ft 7 kts 146°
2026-04-24 16:51 33.93823 -118.40713 135 ft 8 kts 119°
2026-04-24 16:51 33.93816 -118.40633 134 ft 11 kts 85°
2026-04-24 16:51 33.93825 -118.40529 132 ft 13 kts 84°
2026-04-24 16:52 33.93837 -118.40408 130 ft 15 kts 83°
2026-04-24 16:52 33.93851 -118.40272 129 ft 16 kts 84°
2026-04-24 16:52 33.93865 -118.40141 128 ft 15 kts 82°
2026-04-24 16:52 33.93879 -118.40005 125 ft 17 kts 83°
2026-04-24 16:53 33.93894 -118.39854 123 ft 18 kts 83°
2026-04-24 16:53 33.93911 -118.39690 119 ft 20 kts 83°
2026-04-24 16:53 33.93928 -118.39523 119 ft 19 kts 83°
2026-04-24 16:53 33.93945 -118.39357 116 ft 20 kts 83°
2026-04-24 16:54 33.93962 -118.39188 116 ft 20 kts 83°
2026-04-24 16:54 33.93980 -118.39016 113 ft 21 kts 83°
2026-04-24 16:54 33.93998 -118.38843 112 ft 20 kts 83°
2026-04-24 16:54 33.94014 -118.38677 113 ft 19 kts 83°
2026-04-24 16:55 33.94031 -118.38516 112 ft 19 kts 83°
2026-04-24 16:55 33.94048 -118.38353 110 ft 20 kts 83°
2026-04-24 16:55 33.94065 -118.38187 109 ft 19 kts 83°
2026-04-24 16:55 33.94073 -118.38112 109 ft 0 kts 83°
2026-04-24 16:56 33.94073 -118.38106 109 ft 1 kts 83°
2026-04-24 16:56 33.94076 -118.38079 109 ft 4 kts 85°
2026-04-24 16:57 33.94065 -118.38026 109 ft 7 kts 129°
2026-04-24 16:57 33.94017 -118.38004 109 ft 5 kts 172°
2026-04-24 16:57 33.93990 -118.38024 109 ft 5 kts 243°
2026-04-24 16:57 33.93979 -118.38077 109 ft 7 kts 262°
2026-04-24 16:58 33.93974 -118.38129 109 ft 7 kts 263°
2026-04-24 16:58 33.93954 -118.38319 109 ft 50 kts 263°
2026-04-24 16:58 33.93885 -118.38987 113 ft 110 kts 263°
2026-04-24 16:58 33.93768 -118.40115 128 ft 159 kts 263°
2026-04-24 16:59 33.93615 -118.41604 225 ft 193 kts 262°
2026-04-24 16:59 33.93442 -118.43213 779 ft 193 kts 262°
2026-04-24 16:59 33.93119 -118.46344 2022 ft 192 kts 264°
2026-04-24 17:00 33.92985 -118.47999 2309 ft 206 kts 264°
2026-04-24 17:00 33.92694 -118.51695 2889 ft 238 kts 264°
2026-04-24 17:00 33.92526 -118.53756 3200 ft 256 kts 264°
2026-04-24 17:01 33.92161 -118.58173 4228 ft 272 kts 265°
2026-04-24 17:01 33.91973 -118.60422 4947 ft 272 kts 265°
2026-04-24 17:02 33.91764 -118.64925 6326 ft 272 kts 270°
2026-04-24 17:02 33.91758 -118.67209 7001 ft 272 kts 270°
2026-04-24 17:02 33.91753 -118.69483 7655 ft 274 kts 270°
2026-04-24 17:02 33.91747 -118.71741 8303 ft 275 kts 269°
2026-04-24 17:03 33.91730 -118.76366 9608 ft 278 kts 269°
2026-04-24 17:03 33.91721 -118.78676 10235 ft 281 kts 269°
2026-04-24 17:03 33.91711 -118.81066 10594 ft 293 kts 269°
2026-04-24 17:04 33.91713 -118.83569 10861 ft 308 kts 270°
2026-04-24 17:04 33.91867 -118.88911 11721 ft 326 kts 271°
2026-04-24 17:04 33.91951 -118.91626 12395 ft 327 kts 270°
2026-04-24 17:05 33.92033 -118.94365 13091 ft 327 kts 270°
2026-04-24 17:05 33.92113 -118.97113 13739 ft 329 kts 270°
2026-04-24 17:05 33.92904 -119.02531 14947 ft 339 kts 289°
2026-04-24 17:06 33.93986 -119.05052 15579 ft 343 kts 297°
2026-04-24 17:06 33.96503 -119.09922 16833 ft 345 kts 297°
2026-04-24 17:06 33.97795 -119.12405 17466 ft 346 kts 297°
2026-04-24 17:07 33.98623 -119.14008 17869 ft 347 kts 297°
2026-04-24 17:07 34.00438 -119.17225 18707 ft 351 kts 304°
2026-04-24 17:07 34.04100 -119.21287 19828 ft 365 kts 317°
2026-04-24 17:08 34.08243 -119.24857 20915 ft 369 kts 317°
2026-04-24 17:08 34.10333 -119.26643 21423 ft 371 kts 316°
2026-04-24 17:08 34.12460 -119.28468 21921 ft 373 kts 316°
2026-04-24 17:09 34.16682 -119.32099 22870 ft 376 kts 316°
2026-04-24 17:09 34.20948 -119.35777 23781 ft 380 kts 316°
2026-04-24 17:10 34.23101 -119.37638 24228 ft 381 kts 316°
2026-04-24 17:10 34.29619 -119.43274 25415 ft 388 kts 315°
2026-04-24 17:11 34.36275 -119.49043 26575 ft 394 kts 316°
2026-04-24 17:12 34.40389 -119.62699 28287 ft 362 kts 264°
2026-04-24 18:54 31.08661 -132.19278 36161 ft 402 kts 249°
2026-04-24 18:55 31.05946 -132.28477 36157 ft 401 kts 249°
2026-04-24 18:56 31.04130 -132.34613 36161 ft 402 kts 249°
2026-04-24 18:56 31.02299 -132.40785 36161 ft 401 kts 249°
2026-04-24 18:57 31.00485 -132.46890 36166 ft 402 kts 249°
2026-04-24 18:57 30.98654 -132.53047 36157 ft 401 kts 249°
2026-04-24 18:58 30.96830 -132.59163 36165 ft 402 kts 249°
2026-04-24 18:58 30.94996 -132.65297 36163 ft 401 kts 249°
2026-04-24 18:59 30.93166 -132.71408 36168 ft 401 kts 249°
2026-04-24 18:59 30.91329 -132.77531 36161 ft 401 kts 249°
2026-04-24 19:00 30.89499 -132.83627 36165 ft 401 kts 249°
2026-04-24 19:00 30.87660 -132.89745 36163 ft 401 kts 249°
2026-04-24 19:01 30.85813 -132.95872 36162 ft 402 kts 249°
2026-04-24 19:01 30.83974 -133.01953 36158 ft 401 kts 249°
2026-04-24 19:02 30.82436 -133.07031 36161 ft 401 kts 249°
2026-04-24 19:02 30.80279 -133.14146 36155 ft 401 kts 249°
2026-04-24 19:03 30.78421 -133.20252 36153 ft 401 kts 249°
2026-04-24 19:03 30.76567 -133.26340 36163 ft 401 kts 249°
2026-04-24 19:04 30.74704 -133.32436 36156 ft 401 kts 249°
2026-04-24 19:04 30.72836 -133.38547 36162 ft 402 kts 249°
2026-04-24 19:05 30.70966 -133.44652 36160 ft 402 kts 249°
2026-04-24 19:05 30.69100 -133.50731 36161 ft 401 kts 249°
2026-04-24 19:06 30.67225 -133.56828 36162 ft 402 kts 249°
2026-04-24 19:06 30.65343 -133.62935 36158 ft 402 kts 249°
2026-04-24 19:07 30.63459 -133.69034 36164 ft 402 kts 248°
2026-04-24 19:07 30.61899 -133.74083 36165 ft 402 kts 248°
2026-04-24 19:08 30.59695 -133.81194 36164 ft 402 kts 249°
2026-04-24 19:08 30.57807 -133.87271 36166 ft 401 kts 249°
2026-04-24 19:09 30.55915 -133.93352 36165 ft 403 kts 249°
2026-04-24 19:09 30.54010 -133.99468 36162 ft 403 kts 249°
2026-04-24 19:10 30.52112 -134.05550 36163 ft 403 kts 249°
2026-04-24 19:10 30.50201 -134.11647 36167 ft 403 kts 249°
2026-04-24 19:11 30.48286 -134.17766 36167 ft 403 kts 249°
2026-04-24 19:11 30.46383 -134.23828 36165 ft 403 kts 249°
2026-04-24 19:12 30.44459 -134.29939 36165 ft 403 kts 249°
2026-04-24 19:12 30.42549 -134.36000 36161 ft 404 kts 249°
2026-04-24 19:13 30.40939 -134.41095 36154 ft 403 kts 249°
2026-04-24 19:13 30.38690 -134.48201 36147 ft 404 kts 249°
2026-04-24 19:14 30.36764 -134.54283 36148 ft 405 kts 249°
2026-04-24 19:14 30.34836 -134.60352 36152 ft 404 kts 249°
2026-04-24 19:15 30.32887 -134.66478 36152 ft 404 kts 248°
2026-04-24 19:15 30.30954 -134.72540 36148 ft 405 kts 248°
2026-04-24 19:16 30.28021 -134.81717 36149 ft 405 kts 248°
2026-04-24 19:16 30.26066 -134.87814 36143 ft 405 kts 248°
2026-04-24 19:17 30.24115 -134.93895 36147 ft 405 kts 248°
2026-04-24 19:17 30.22153 -134.99995 36144 ft 406 kts 248°
2026-04-24 19:18 30.20192 -135.06081 36150 ft 406 kts 248°
2026-04-24 19:18 30.18221 -135.12196 36151 ft 406 kts 248°
2026-04-24 19:19 30.16257 -135.18266 36154 ft 406 kts 249°
2026-04-24 19:19 30.14280 -135.24377 36146 ft 407 kts 249°
2026-04-24 19:20 30.12295 -135.30499 36152 ft 407 kts 248°
2026-04-24 19:20 30.10304 -135.36615 36148 ft 408 kts 249°
2026-04-24 19:21 30.08318 -135.42722 36146 ft 408 kts 249°
2026-04-24 19:21 30.06318 -135.48850 36148 ft 408 kts 249°
2026-04-24 19:22 30.04331 -135.54939 36150 ft 409 kts 248°
2026-04-24 19:22 30.02323 -135.61072 36154 ft 409 kts 248°
2026-04-24 19:23 30.00323 -135.67166 36150 ft 408 kts 248°
2026-04-24 19:23 29.98319 -135.73273 36157 ft 408 kts 248°
2026-04-24 19:24 29.96306 -135.79382 36151 ft 408 kts 248°
2026-04-24 19:24 29.94291 -135.85483 36151 ft 409 kts 248°
2026-04-24 19:25 29.92281 -135.91568 36146 ft 409 kts 248°
2026-04-24 19:25 29.90259 -135.97685 36152 ft 410 kts 248°
2026-04-24 19:26 29.88230 -136.03804 36145 ft 411 kts 248°
2026-04-24 19:26 29.86187 -136.09955 36141 ft 410 kts 248°
2026-04-24 19:27 29.84154 -136.16064 36140 ft 412 kts 248°
2026-04-24 19:27 29.82098 -136.22234 36131 ft 412 kts 248°
2026-04-24 19:28 29.80046 -136.28384 36135 ft 412 kts 248°
2026-04-24 19:28 29.77992 -136.34526 36138 ft 412 kts 249°
2026-04-24 19:29 29.75921 -136.40703 36502 ft 414 kts 249°
2026-04-24 19:29 29.74894 -136.43758 36764 ft 413 kts 249°
2026-04-24 19:29 29.73865 -136.46826 36997 ft 413 kts 249°
2026-04-24 19:30 29.72818 -136.49934 37173 ft 414 kts 250°
2026-04-24 19:30 29.71784 -136.53005 37350 ft 415 kts 250°
2026-04-24 19:30 29.70752 -136.56071 37530 ft 416 kts 250°
2026-04-24 19:30 29.69703 -136.59193 37694 ft 417 kts 250°
2026-04-24 19:31 29.68650 -136.62309 37911 ft 416 kts 250°
2026-04-24 19:31 29.67617 -136.65363 38107 ft 416 kts 250°
2026-04-24 19:31 29.66570 -136.68465 38132 ft 417 kts 250°
2026-04-24 19:32 29.64461 -136.74705 38127 ft 418 kts 250°
2026-04-24 19:32 29.62361 -136.80902 38147 ft 419 kts 250°
2026-04-24 19:33 29.60255 -136.87103 38165 ft 418 kts 250°
2026-04-24 19:33 29.58135 -136.93330 38148 ft 419 kts 250°
2026-04-24 19:34 29.56023 -136.99524 38144 ft 418 kts 250°
2026-04-24 19:34 29.53891 -137.05774 38149 ft 419 kts 250°
2026-04-24 19:35 29.51776 -137.11957 38148 ft 419 kts 250°
2026-04-24 19:35 29.49644 -137.18182 38155 ft 419 kts 250°
2026-04-24 19:36 29.47511 -137.24393 38158 ft 420 kts 250°
2026-04-24 19:36 29.45374 -137.30609 38147 ft 421 kts 250°
2026-04-24 19:37 29.43219 -137.36864 38147 ft 420 kts 250°
2026-04-24 19:37 29.41080 -137.43057 38147 ft 420 kts 251°
2026-04-24 19:38 29.38920 -137.49306 38150 ft 421 kts 251°
2026-04-24 19:38 29.36777 -137.55492 38147 ft 421 kts 251°
2026-04-24 19:39 29.34605 -137.61754 38148 ft 422 kts 251°
2026-04-24 19:39 29.32447 -137.67966 38149 ft 422 kts 250°
2026-04-24 19:40 29.30273 -137.74206 38147 ft 422 kts 250°
2026-04-24 19:40 29.28087 -137.80476 38148 ft 424 kts 250°
2026-04-24 19:41 29.25908 -137.86713 38149 ft 424 kts 250°
2026-04-24 19:41 29.23717 -137.92976 38147 ft 424 kts 250°
2026-04-24 19:42 29.21527 -137.99219 38149 ft 423 kts 251°
2026-04-24 19:42 29.19342 -138.05437 38151 ft 424 kts 250°
2026-04-24 19:43 29.17143 -138.11690 38148 ft 425 kts 251°
2026-04-24 19:43 29.14930 -138.17972 38151 ft 425 kts 251°
2026-04-24 19:44 29.12727 -138.24206 38153 ft 426 kts 251°
2026-04-24 19:44 29.10509 -138.30473 38155 ft 425 kts 251°
2026-04-24 19:45 29.08282 -138.36760 38153 ft 426 kts 251°
2026-04-24 19:45 29.06067 -138.43005 38152 ft 427 kts 251°
2026-04-24 19:46 29.03845 -138.49252 38152 ft 427 kts 251°
2026-04-24 19:46 29.01609 -138.55527 38151 ft 427 kts 251°
2026-04-24 19:47 28.99375 -138.61797 38145 ft 428 kts 251°
2026-04-24 19:47 28.97134 -138.68059 38152 ft 427 kts 251°
2026-04-24 19:48 28.94876 -138.74365 38152 ft 428 kts 251°
2026-04-24 19:48 28.91504 -138.83768 38175 ft 428 kts 251°
2026-04-24 19:49 28.86949 -138.96437 38148 ft 439 kts 251°
2026-04-24 19:50 28.82239 -139.09470 38146 ft 446 kts 251°
2026-04-24 19:51 28.78700 -139.19237 38145 ft 447 kts 251°
2026-04-24 19:52 28.75138 -139.29042 38153 ft 446 kts 251°
2026-04-24 19:52 28.72775 -139.35538 38156 ft 446 kts 251°
2026-04-24 19:53 28.70392 -139.42072 38147 ft 447 kts 251°
2026-04-24 19:54 28.66810 -139.51845 38147 ft 447 kts 251°
2026-04-24 19:54 28.64416 -139.58351 38146 ft 446 kts 251°
2026-04-24 19:55 28.62419 -139.63771 38150 ft 446 kts 251°
2026-04-24 19:55 28.59619 -139.71365 38152 ft 448 kts 251°
2026-04-24 19:56 28.57218 -139.77870 38149 ft 448 kts 251°
2026-04-24 19:56 28.54803 -139.84395 38149 ft 448 kts 251°
2026-04-24 19:57 28.52398 -139.90883 38150 ft 449 kts 251°
2026-04-24 19:57 28.49980 -139.97395 38153 ft 448 kts 251°
2026-04-24 19:58 28.47551 -140.03926 38152 ft 450 kts 251°
2026-04-24 19:58 28.45119 -140.10451 38150 ft 450 kts 251°
2026-04-24 19:59 28.42680 -140.16989 38146 ft 449 kts 251°
2026-04-24 19:59 28.40251 -140.23483 38144 ft 450 kts 251°
2026-04-24 20:00 28.37805 -140.30016 38141 ft 450 kts 251°
2026-04-24 20:00 28.35360 -140.36526 38147 ft 450 kts 251°
2026-04-24 20:01 28.32909 -140.43051 38139 ft 451 kts 251°
2026-04-24 20:01 28.30453 -140.49570 38143 ft 451 kts 251°
2026-04-24 20:02 28.28409 -140.54991 38141 ft 451 kts 251°
2026-04-24 20:02 28.25536 -140.62602 38140 ft 451 kts 251°
2026-04-24 20:03 28.23064 -140.69130 38143 ft 452 kts 251°
2026-04-24 20:03 28.20584 -140.75671 38136 ft 452 kts 251°
2026-04-24 20:04 28.18114 -140.82173 38137 ft 452 kts 251°
2026-04-24 20:04 28.15633 -140.88698 38129 ft 452 kts 251°
2026-04-24 20:05 28.13143 -140.95230 38131 ft 453 kts 251°
2026-04-24 20:05 28.10646 -141.01775 38128 ft 452 kts 251°
2026-04-24 20:06 28.08154 -141.08295 38122 ft 452 kts 251°
2026-04-24 20:06 28.05656 -141.14813 38126 ft 453 kts 251°
2026-04-24 20:07 28.03577 -141.20229 38124 ft 453 kts 251°
2026-04-24 20:07 28.00654 -141.27837 38126 ft 453 kts 251°
2026-04-24 20:08 27.98135 -141.34383 38133 ft 453 kts 251°
2026-04-24 20:08 27.95635 -141.40868 38127 ft 453 kts 251°
2026-04-24 20:09 27.93111 -141.47400 38131 ft 453 kts 251°
2026-04-24 20:09 27.90598 -141.53896 38130 ft 453 kts 251°
2026-04-24 20:10 27.88074 -141.60403 38132 ft 452 kts 251°
2026-04-24 20:10 27.85571 -141.66856 38132 ft 452 kts 251°
2026-04-24 20:11 27.83032 -141.73387 38134 ft 453 kts 251°
2026-04-24 20:11 27.80497 -141.79894 38133 ft 454 kts 250°
2026-04-24 20:12 27.77960 -141.86397 38133 ft 454 kts 250°
2026-04-24 20:12 27.75413 -141.92909 38134 ft 454 kts 250°
2026-04-24 20:13 27.72873 -141.99399 38142 ft 454 kts 251°
2026-04-24 20:13 27.70322 -142.05905 38142 ft 454 kts 250°
2026-04-24 20:14 27.67785 -142.12366 38144 ft 454 kts 250°
2026-04-24 20:14 27.65228 -142.18863 38140 ft 454 kts 251°
2026-04-24 20:15 27.62652 -142.25401 38140 ft 455 kts 250°
2026-04-24 20:15 27.60089 -142.31894 38141 ft 454 kts 251°
2026-04-24 20:16 27.57525 -142.38376 38139 ft 454 kts 251°
2026-04-24 20:16 27.54962 -142.44850 38141 ft 454 kts 251°
2026-04-24 20:17 27.52386 -142.51346 38132 ft 454 kts 250°
2026-04-24 20:17 27.48529 -142.61047 38139 ft 455 kts 250°
2026-04-24 20:18 27.45931 -142.67572 38139 ft 456 kts 250°
2026-04-24 20:18 27.43338 -142.74071 38134 ft 456 kts 250°
2026-04-24 20:19 27.40756 -142.80531 38137 ft 456 kts 250°
2026-04-24 20:19 27.38157 -142.87024 38133 ft 456 kts 250°
2026-04-24 20:20 27.35555 -142.93515 38134 ft 456 kts 250°
2026-04-24 20:20 27.32934 -143.00040 38130 ft 456 kts 250°
2026-04-24 20:21 27.30333 -143.06514 38130 ft 455 kts 250°
2026-04-24 20:21 27.27731 -143.12967 38127 ft 456 kts 250°
2026-04-24 20:22 27.25107 -143.19470 38129 ft 456 kts 250°
2026-04-24 20:22 27.22500 -143.25920 38133 ft 456 kts 250°
2026-04-24 20:23 27.19877 -143.32402 38134 ft 456 kts 250°
2026-04-24 20:23 27.17252 -143.38876 38130 ft 455 kts 250°
2026-04-24 20:24 27.14634 -143.45320 38132 ft 454 kts 250°
2026-04-24 20:24 27.12022 -143.51743 38137 ft 454 kts 250°
2026-04-24 20:25 27.09389 -143.58209 38135 ft 455 kts 250°
2026-04-24 20:25 27.06768 -143.64629 38139 ft 455 kts 250°
2026-04-24 20:26 27.04133 -143.71075 38139 ft 456 kts 250°
2026-04-24 20:26 27.01498 -143.77515 38138 ft 455 kts 250°
2026-04-24 20:27 26.98845 -143.83986 38140 ft 456 kts 250°
2026-04-24 20:27 26.96205 -143.90416 38142 ft 456 kts 250°
2026-04-24 20:28 26.93568 -143.96829 38143 ft 456 kts 249°
2026-04-24 20:28 26.90902 -144.03296 38142 ft 455 kts 250°
2026-04-24 20:29 26.88261 -144.09698 38148 ft 455 kts 250°
2026-04-24 20:29 26.85607 -144.16122 38137 ft 456 kts 250°
2026-04-24 20:30 26.82951 -144.22540 38137 ft 456 kts 250°
2026-04-24 20:30 26.80288 -144.28967 38139 ft 456 kts 250°
2026-04-24 20:31 26.77604 -144.35434 38138 ft 457 kts 249°
2026-04-24 20:31 26.74924 -144.41878 38135 ft 458 kts 250°
2026-04-24 20:32 26.72241 -144.48318 38129 ft 459 kts 250°
2026-04-24 20:32 26.69553 -144.54762 38133 ft 459 kts 249°
2026-04-24 20:33 26.66861 -144.61209 38132 ft 460 kts 249°
2026-04-24 20:33 26.64150 -144.67686 38130 ft 459 kts 249°
2026-04-24 20:34 26.61454 -144.74121 38125 ft 459 kts 249°
2026-04-24 20:34 26.58743 -144.80576 38119 ft 459 kts 249°
2026-04-24 20:35 26.56038 -144.87015 38124 ft 460 kts 249°
2026-04-24 20:35 26.53334 -144.93437 38121 ft 460 kts 249°
2026-04-24 20:36 26.50599 -144.99925 38118 ft 460 kts 249°
2026-04-24 20:36 26.47875 -145.06377 38117 ft 460 kts 249°
2026-04-24 20:37 26.45151 -145.12816 38115 ft 461 kts 249°
2026-04-24 20:37 26.42415 -145.19278 38111 ft 462 kts 249°
2026-04-24 20:38 26.39669 -145.25748 38105 ft 462 kts 249°
2026-04-24 20:38 26.36931 -145.32187 38102 ft 462 kts 249°
2026-04-24 20:39 26.34189 -145.38631 38103 ft 462 kts 249°
2026-04-24 20:39 26.31426 -145.45116 38100 ft 462 kts 249°
2026-04-24 20:40 26.28672 -145.51569 38104 ft 462 kts 249°
2026-04-24 20:40 26.25927 -145.57991 38101 ft 462 kts 249°
2026-04-24 20:41 26.23162 -145.64449 38091 ft 462 kts 249°
2026-04-24 20:41 26.20390 -145.70911 38095 ft 463 kts 248°
2026-04-24 20:42 26.17616 -145.77371 38096 ft 463 kts 248°
2026-04-24 20:42 26.14854 -145.83795 38093 ft 464 kts 248°
2026-04-24 20:43 26.12076 -145.90243 38091 ft 463 kts 248°
2026-04-24 20:43 26.09294 -145.96693 38085 ft 463 kts 248°
2026-04-24 20:44 26.06510 -146.03137 38083 ft 465 kts 248°
2026-04-24 20:44 26.03707 -146.09616 38087 ft 465 kts 248°
2026-04-24 20:45 26.00904 -146.16087 38084 ft 465 kts 248°
2026-04-24 20:45 25.98117 -146.22511 38087 ft 464 kts 248°
2026-04-24 20:46 25.95315 -146.28972 38083 ft 464 kts 248°
2026-04-24 20:46 25.92525 -146.35388 38081 ft 464 kts 248°
2026-04-24 20:47 25.89724 -146.41823 38087 ft 464 kts 248°
2026-04-24 20:47 25.86912 -146.48279 38078 ft 465 kts 248°
2026-04-24 20:48 25.84088 -146.54748 38078 ft 465 kts 248°
2026-04-24 20:48 25.81274 -146.61188 38084 ft 466 kts 248°
2026-04-24 20:49 25.78466 -146.67604 38077 ft 466 kts 248°
2026-04-24 20:49 25.75632 -146.74069 38078 ft 466 kts 248°
2026-04-24 20:50 25.72785 -146.80551 38081 ft 467 kts 248°
2026-04-24 20:50 25.69952 -146.86992 38074 ft 467 kts 248°
2026-04-24 20:51 25.67100 -146.93468 38073 ft 467 kts 248°
2026-04-24 20:51 25.64267 -146.99895 38078 ft 467 kts 248°
2026-04-24 20:52 25.61412 -147.06361 38074 ft 468 kts 248°
2026-04-24 20:52 25.58560 -147.12808 38072 ft 468 kts 248°
2026-04-24 20:53 25.55695 -147.19278 38075 ft 469 kts 247°
2026-04-24 20:53 25.52832 -147.25729 38071 ft 469 kts 247°
2026-04-24 20:54 25.49955 -147.32204 38080 ft 469 kts 248°
2026-04-24 20:54 25.47089 -147.38646 38074 ft 469 kts 247°
2026-04-24 20:55 25.44216 -147.45094 38074 ft 468 kts 247°
2026-04-24 20:55 25.41323 -147.51578 38077 ft 469 kts 247°
2026-04-24 20:56 25.38438 -147.58032 38080 ft 469 kts 248°
2026-04-24 20:56 25.35559 -147.64465 38079 ft 470 kts 248°
2026-04-24 20:57 25.32643 -147.70973 38077 ft 471 kts 247°
2026-04-24 20:57 25.29757 -147.77405 38079 ft 471 kts 247°
2026-04-24 20:58 25.26840 -147.83896 38078 ft 471 kts 247°
2026-04-24 20:58 25.23944 -147.90328 38083 ft 471 kts 247°
2026-04-24 20:59 25.21015 -147.96822 38082 ft 471 kts 247°
2026-04-24 20:59 25.18109 -148.03261 38084 ft 470 kts 247°
2026-04-24 21:00 25.15205 -148.09685 38080 ft 470 kts 247°
2026-04-24 21:00 25.12293 -148.16121 38081 ft 470 kts 247°
2026-04-24 21:01 25.09358 -148.22598 38083 ft 471 kts 246°
2026-04-24 21:01 25.06445 -148.29011 38083 ft 471 kts 247°
2026-04-24 21:02 25.03501 -148.35484 38079 ft 471 kts 246°
2026-04-24 21:02 25.00573 -148.41916 38080 ft 470 kts 246°
2026-04-24 21:03 24.97648 -148.48328 38076 ft 468 kts 246°
2026-04-24 21:03 24.94740 -148.54700 38080 ft 468 kts 246°
2026-04-24 21:04 24.91817 -148.61090 38076 ft 468 kts 246°
2026-04-24 21:04 24.88881 -148.67502 38081 ft 468 kts 246°
2026-04-24 21:05 24.85949 -148.73898 38076 ft 468 kts 246°
2026-04-24 21:05 24.83029 -148.80258 38080 ft 468 kts 246°
2026-04-24 21:06 24.80093 -148.86642 38080 ft 468 kts 246°
2026-04-24 21:06 24.77160 -148.93012 38082 ft 469 kts 246°
2026-04-24 21:07 24.74211 -148.99405 38082 ft 469 kts 246°
2026-04-24 21:07 24.71266 -149.05786 38080 ft 469 kts 246°
2026-04-24 21:08 24.68318 -149.12163 38079 ft 468 kts 246°
2026-04-24 21:08 24.65367 -149.18538 38086 ft 469 kts 246°
2026-04-24 21:09 24.62400 -149.24936 38078 ft 469 kts 246°
2026-04-24 21:09 24.59461 -149.31264 38080 ft 469 kts 246°
2026-04-24 21:10 24.56500 -149.37631 38080 ft 468 kts 246°
2026-04-24 21:10 24.53529 -149.44017 38082 ft 468 kts 246°
2026-04-24 21:11 24.50573 -149.50359 38082 ft 468 kts 246°
2026-04-24 21:11 24.47607 -149.56708 38083 ft 468 kts 246°
2026-04-24 21:12 24.44643 -149.63048 38078 ft 468 kts 246°
2026-04-24 21:12 24.41669 -149.69398 38078 ft 468 kts 245°
2026-04-24 21:13 24.38698 -149.75737 38063 ft 468 kts 245°
2026-04-24 21:13 24.35735 -149.82053 38062 ft 468 kts 245°
2026-04-24 21:14 24.32760 -149.88384 38069 ft 468 kts 245°
2026-04-24 21:14 24.29786 -149.94701 38061 ft 467 kts 245°
2026-04-24 21:15 24.26795 -150.01045 38057 ft 467 kts 245°
2026-04-24 21:15 24.23829 -150.07327 38078 ft 467 kts 245°
2026-04-24 21:16 24.20845 -150.13643 38063 ft 467 kts 245°
2026-04-24 21:16 24.17854 -150.19965 38058 ft 467 kts 245°
2026-04-24 21:17 24.14867 -150.26270 38067 ft 467 kts 245°
2026-04-24 21:17 24.11871 -150.32584 38063 ft 468 kts 245°
2026-04-24 21:18 24.08880 -150.38881 38060 ft 468 kts 245°
2026-04-24 21:18 24.05884 -150.45175 38061 ft 468 kts 245°
2026-04-24 21:19 24.02871 -150.51498 38063 ft 468 kts 245°
2026-04-24 21:19 23.99854 -150.57823 38069 ft 468 kts 245°
2026-04-24 21:20 23.95346 -150.67256 38065 ft 468 kts 245°
2026-04-24 21:21 23.92331 -150.73557 38065 ft 468 kts 245°
2026-04-24 21:21 23.89316 -150.79851 38051 ft 467 kts 245°
2026-04-24 21:22 23.86309 -150.86119 38052 ft 468 kts 245°
2026-04-24 21:22 23.83287 -150.92407 38053 ft 468 kts 245°
2026-04-24 21:23 23.80258 -150.98702 38047 ft 468 kts 245°
2026-04-24 21:23 23.77228 -151.04993 38044 ft 468 kts 245°
2026-04-24 21:24 23.74198 -151.11273 38085 ft 468 kts 245°
2026-04-24 21:24 23.71169 -151.17546 38041 ft 468 kts 245°
2026-04-24 21:25 23.68141 -151.23808 38040 ft 468 kts 245°
2026-04-24 21:25 23.65093 -151.30103 38066 ft 467 kts 245°
2026-04-24 21:26 23.62058 -151.36359 38056 ft 468 kts 245°
2026-04-24 21:26 23.59034 -151.42589 38055 ft 468 kts 245°
2026-04-24 21:27 23.55978 -151.48874 38066 ft 467 kts 245°
2026-04-24 21:27 23.52942 -151.55110 38052 ft 467 kts 245°
2026-04-24 21:28 23.49904 -151.61345 38067 ft 466 kts 245°
2026-04-24 21:28 23.46880 -151.67543 38058 ft 466 kts 244°
2026-04-24 21:29 23.43831 -151.73782 38055 ft 466 kts 244°
2026-04-24 21:29 23.40801 -151.79976 38054 ft 466 kts 244°
2026-04-24 21:30 23.37748 -151.86206 38074 ft 467 kts 244°
2026-04-24 21:30 23.34702 -151.92418 38047 ft 466 kts 244°
2026-04-24 21:31 23.31661 -151.98610 38051 ft 465 kts 244°
2026-04-24 21:31 23.28612 -152.04813 38060 ft 464 kts 244°
2026-04-24 21:32 23.25575 -152.10979 38067 ft 464 kts 244°
2026-04-24 21:32 23.22538 -152.17142 38058 ft 464 kts 244°
2026-04-24 21:33 23.19473 -152.23351 38055 ft 464 kts 244°
2026-04-24 21:33 23.16431 -152.29507 38073 ft 464 kts 244°
2026-04-24 21:34 23.13394 -152.35648 38058 ft 464 kts 244°
2026-04-24 21:34 23.10326 -152.41840 38065 ft 464 kts 244°
2026-04-24 21:35 23.07270 -152.48001 38069 ft 464 kts 244°
2026-04-24 21:35 23.04208 -152.54167 38063 ft 464 kts 244°
2026-04-24 21:36 23.01142 -152.60324 38060 ft 463 kts 244°
2026-04-24 21:36 22.98073 -152.66443 38065 ft 463 kts 244°
2026-04-24 21:37 22.94998 -152.72563 38079 ft 462 kts 244°
2026-04-24 21:37 22.91936 -152.78653 38065 ft 463 kts 244°
2026-04-24 21:38 22.88863 -152.84761 38072 ft 463 kts 244°
2026-04-24 21:38 22.85775 -152.90892 38071 ft 463 kts 244°
2026-04-24 21:39 22.82690 -152.97011 38077 ft 463 kts 244°
2026-04-24 21:39 22.79602 -153.03128 38067 ft 462 kts 244°
2026-04-24 21:40 22.76521 -153.09222 38069 ft 462 kts 244°
2026-04-24 21:40 22.73449 -153.15289 38069 ft 461 kts 244°
2026-04-24 21:41 22.70367 -153.21368 38066 ft 460 kts 244°
2026-04-24 21:41 22.67291 -153.27434 38061 ft 460 kts 244°
2026-04-24 21:42 22.64224 -153.33473 38069 ft 460 kts 244°
2026-04-24 21:42 22.61146 -153.39528 38064 ft 459 kts 244°
2026-04-24 21:43 22.58072 -153.45563 38071 ft 460 kts 244°
2026-04-24 21:43 22.54972 -153.51645 38062 ft 460 kts 244°
2026-04-24 21:44 22.51898 -153.57667 38059 ft 459 kts 244°
2026-04-24 21:44 22.48813 -153.63705 38061 ft 459 kts 244°
2026-04-24 21:45 22.45733 -153.69727 38070 ft 459 kts 243°
2026-04-24 21:45 22.42635 -153.75778 38072 ft 460 kts 244°
2026-04-24 21:46 22.39550 -153.81796 38060 ft 460 kts 243°
2026-04-24 21:46 22.36448 -153.87810 38065 ft 459 kts 242°
2026-04-24 21:47 22.33132 -153.93672 38065 ft 459 kts 241°
2026-04-24 21:47 22.29799 -153.99510 38063 ft 458 kts 241°
2026-04-24 21:48 22.26461 -154.05356 38061 ft 458 kts 241°
2026-04-24 21:48 22.23116 -154.11204 38073 ft 458 kts 241°
2026-04-24 21:49 22.19765 -154.17055 38067 ft 458 kts 241°
2026-04-24 21:49 22.16440 -154.22859 38062 ft 458 kts 241°
2026-04-24 21:50 22.13095 -154.28688 38062 ft 457 kts 241°
2026-04-24 21:50 22.11410 -154.31624 37959 ft 458 kts 241°
2026-04-24 21:50 22.09729 -154.34555 37267 ft 463 kts 241°
2026-04-24 21:50 22.08044 -154.37495 36428 ft 468 kts 240°
2026-04-24 21:51 22.06339 -154.40466 35624 ft 472 kts 240°
2026-04-24 21:51 22.04614 -154.43466 34718 ft 478 kts 239°
2026-04-24 21:51 22.02836 -154.46556 33718 ft 486 kts 239°
2026-04-24 21:51 22.01063 -154.49634 32605 ft 496 kts 239°
2026-04-24 21:52 21.99208 -154.52847 31428 ft 506 kts 238°
2026-04-24 21:52 21.97371 -154.56026 30543 ft 510 kts 238°
2026-04-24 21:52 21.95492 -154.59306 29630 ft 513 kts 240°
2026-04-24 21:52 21.93754 -154.62645 28863 ft 512 kts 242°
2026-04-24 21:53 21.92067 -154.65982 28330 ft 507 kts 242°
2026-04-24 21:53 21.90400 -154.69298 27859 ft 500 kts 242°
2026-04-24 21:53 21.88752 -154.72577 27438 ft 493 kts 242°
2026-04-24 21:53 21.87144 -154.75772 27022 ft 487 kts 242°
2026-04-24 21:54 21.85534 -154.78970 26618 ft 480 kts 242°
2026-04-24 21:54 21.83952 -154.82108 26209 ft 474 kts 242°
2026-04-24 21:54 21.82410 -154.85167 25823 ft 468 kts 242°
2026-04-24 21:54 21.80864 -154.88228 25436 ft 462 kts 242°
2026-04-24 21:55 21.79333 -154.91258 25043 ft 456 kts 242°
2026-04-24 21:55 21.77834 -154.94225 24659 ft 451 kts 242°
2026-04-24 21:55 21.76353 -154.97151 24271 ft 446 kts 242°
2026-04-24 21:55 21.74866 -155.00087 23875 ft 442 kts 242°
2026-04-24 21:56 21.73406 -155.02971 23490 ft 437 kts 243°
2026-04-24 21:56 21.71960 -155.05824 23106 ft 433 kts 243°
2026-04-24 21:56 21.70545 -155.08618 22730 ft 429 kts 243°
2026-04-24 21:56 21.69131 -155.11406 22347 ft 425 kts 243°
2026-04-24 21:57 21.67722 -155.14182 21954 ft 422 kts 243°
2026-04-24 21:57 21.66309 -155.16965 21562 ft 418 kts 243°
2026-04-24 21:57 21.64924 -155.19690 21173 ft 415 kts 243°
2026-04-24 21:57 21.63546 -155.22403 20794 ft 412 kts 243°
2026-04-24 21:58 21.62178 -155.25092 20410 ft 409 kts 243°
2026-04-24 21:58 21.60835 -155.27733 20029 ft 407 kts 243°
2026-04-24 21:58 21.59479 -155.30399 19642 ft 405 kts 243°
2026-04-24 21:58 21.58122 -155.33064 19256 ft 402 kts 243°
2026-04-24 21:59 21.56795 -155.35667 18880 ft 400 kts 243°
2026-04-24 21:59 21.55463 -155.38281 18494 ft 398 kts 243°
2026-04-24 21:59 21.54137 -155.40881 18115 ft 396 kts 243°
2026-04-24 21:59 21.52829 -155.43443 17741 ft 394 kts 243°
2026-04-24 22:00 21.51508 -155.46031 17365 ft 392 kts 243°
2026-04-24 22:00 21.50198 -155.48595 16993 ft 389 kts 243°
2026-04-24 22:00 21.48901 -155.51129 16625 ft 387 kts 243°
2026-04-24 22:00 21.47621 -155.53630 16257 ft 385 kts 243°
2026-04-24 22:01 21.46333 -155.56149 15884 ft 383 kts 243°
2026-04-24 22:01 21.45051 -155.58652 15510 ft 382 kts 243°
2026-04-24 22:01 21.43784 -155.61127 15142 ft 380 kts 244°
2026-04-24 22:01 21.42520 -155.63594 14773 ft 378 kts 244°
2026-04-24 22:02 21.41252 -155.66066 14402 ft 376 kts 243°
2026-04-24 22:02 21.40001 -155.68507 14034 ft 374 kts 244°
2026-04-24 22:02 21.38755 -155.70938 13674 ft 371 kts 244°
2026-04-24 22:02 21.37507 -155.73367 13312 ft 369 kts 244°
2026-04-24 22:03 21.36269 -155.75781 12945 ft 367 kts 244°
2026-04-24 22:03 21.35045 -155.78168 12579 ft 365 kts 244°
2026-04-24 22:03 21.33824 -155.80547 12214 ft 363 kts 244°
2026-04-24 22:03 21.32615 -155.82899 11848 ft 362 kts 244°
2026-04-24 22:04 21.31401 -155.85263 11481 ft 360 kts 244°
2026-04-24 22:04 21.30205 -155.87585 11118 ft 358 kts 244°
2026-04-24 22:04 21.29000 -155.89925 10753 ft 356 kts 244°
2026-04-24 22:04 21.27798 -155.92259 10389 ft 354 kts 244°
2026-04-24 22:05 21.26618 -155.94547 10219 ft 345 kts 244°
2026-04-24 22:05 21.25486 -155.96742 10162 ft 333 kts 244°
2026-04-24 22:05 21.24384 -155.98879 10105 ft 322 kts 244°
2026-04-24 22:05 21.23316 -156.00946 10058 ft 311 kts 244°
2026-04-24 22:06 21.22287 -156.02942 10014 ft 300 kts 244°
2026-04-24 22:06 21.21297 -156.04860 9939 ft 292 kts 244°
2026-04-24 22:06 21.20313 -156.06769 9648 ft 292 kts 244°
2026-04-24 22:06 21.19328 -156.08681 9370 ft 291 kts 244°
2026-04-24 22:07 21.18349 -156.10577 9100 ft 290 kts 244°
2026-04-24 22:07 21.17234 -156.12357 8967 ft 286 kts 231°
2026-04-24 22:07 21.15775 -156.13786 8751 ft 286 kts 219°
2026-04-24 22:07 21.14165 -156.15042 8440 ft 288 kts 217°
2026-04-24 22:08 21.12536 -156.16264 8160 ft 288 kts 217°
2026-04-24 22:08 21.10880 -156.17511 7888 ft 287 kts 217°
2026-04-24 22:08 21.09266 -156.18736 7683 ft 284 kts 217°
2026-04-24 22:08 21.07654 -156.19968 7467 ft 281 kts 217°
2026-04-24 22:09 21.06065 -156.21185 7294 ft 277 kts 217°
2026-04-24 22:09 21.04518 -156.22374 7123 ft 273 kts 217°
2026-04-24 22:09 21.02977 -156.23557 6980 ft 268 kts 217°
2026-04-24 22:09 21.01477 -156.24705 6856 ft 262 kts 216°
2026-04-24 22:10 21.00001 -156.25827 6584 ft 263 kts 216°
2026-04-24 22:10 20.98514 -156.26952 6447 ft 260 kts 216°
2026-04-24 22:10 20.97042 -156.28065 6286 ft 257 kts 216°
2026-04-24 22:10 20.95575 -156.29175 6036 ft 259 kts 216°
2026-04-24 22:11 20.94094 -156.30298 5838 ft 257 kts 216°
2026-04-24 22:11 20.92642 -156.31398 5657 ft 255 kts 216°
2026-04-24 22:11 20.91190 -156.32498 5407 ft 256 kts 216°
2026-04-24 22:11 20.89745 -156.33592 5223 ft 255 kts 216°
2026-04-24 22:12 20.88280 -156.34692 5016 ft 254 kts 215°
2026-04-24 22:12 20.86844 -156.35754 5018 ft 245 kts 215°
2026-04-24 22:12 20.85421 -156.36804 5025 ft 247 kts 215°
2026-04-24 22:12 20.84021 -156.37837 5034 ft 247 kts 215°
2026-04-24 22:13 20.82602 -156.38886 5024 ft 247 kts 214°
2026-04-24 22:13 20.81182 -156.39934 5011 ft 247 kts 215°
2026-04-24 22:13 20.79760 -156.40985 5028 ft 247 kts 215°
2026-04-24 22:13 20.78344 -156.42030 5024 ft 247 kts 215°
2026-04-24 22:14 20.76922 -156.43082 5015 ft 247 kts 215°
2026-04-24 22:14 20.75498 -156.44135 4997 ft 247 kts 215°
2026-04-24 22:14 20.74100 -156.45175 4985 ft 247 kts 215°
2026-04-24 22:14 20.72685 -156.46228 4974 ft 247 kts 215°
2026-04-24 22:15 20.71269 -156.47281 4967 ft 247 kts 215°
2026-04-24 22:15 20.69845 -156.48341 4945 ft 247 kts 215°
2026-04-24 22:15 20.68442 -156.49385 4940 ft 247 kts 215°
2026-04-24 22:15 20.67082 -156.50529 4820 ft 246 kts 233°
2026-04-24 22:16 20.66472 -156.52176 4645 ft 239 kts 273°
2026-04-24 22:16 20.66933 -156.53796 4402 ft 232 kts 308°
2026-04-24 22:16 20.67946 -156.55162 4132 ft 233 kts 311°
2026-04-24 22:16 20.68972 -156.56464 3947 ft 228 kts 321°
2026-04-24 22:17 20.70342 -156.57108 3909 ft 210 kts
2026-04-24 22:17 20.71704 -156.56657 3726 ft 204 kts 33°
2026-04-24 22:17 20.72835 -156.55782 3525 ft 200 kts 39°
2026-04-24 22:17 20.73925 -156.54872 3330 ft 197 kts 38°
2026-04-24 22:18 20.75016 -156.53998 3149 ft 192 kts 37°
2026-04-24 22:18 20.76097 -156.53168 2949 ft 188 kts 36°
2026-04-24 22:18 20.77160 -156.52371 2718 ft 187 kts 36°
2026-04-24 22:18 20.78220 -156.51584 2486 ft 185 kts 36°
2026-04-24 22:19 20.79260 -156.50813 2259 ft 178 kts 36°
2026-04-24 22:19 20.80259 -156.50072 2054 ft 169 kts 36°
2026-04-24 22:19 20.81199 -156.49374 1843 ft 162 kts 36°
2026-04-24 22:19 20.82107 -156.48698 1645 ft 154 kts 36°
2026-04-24 22:20 20.82968 -156.48058 1455 ft 147 kts 36°
2026-04-24 22:20 20.83788 -156.47449 1272 ft 140 kts 35°
2026-04-24 22:20 20.84570 -156.46866 1104 ft 135 kts 35°
2026-04-24 22:20 20.85348 -156.46286 940 ft 136 kts 35°
2026-04-24 22:21 20.86130 -156.45703 766 ft 135 kts 34°
2026-04-24 22:21 20.86909 -156.45125 591 ft 135 kts 34°
2026-04-24 22:21 20.87681 -156.44551 414 ft 134 kts 34°
2026-04-24 22:21 20.88440 -156.43991 248 ft 133 kts 34°
2026-04-24 22:22 20.89205 -156.43427 95 ft 131 kts 36°
2026-04-24 22:22 20.89870 -156.42928 56 ft 86 kts 36°
2026-04-24 22:22 20.90216 -156.42668 50 ft 42 kts 35°
2026-04-24 22:22 20.90403 -156.42531 50 ft 21 kts 34°
2026-04-24 22:23 20.90480 -156.42541 49 ft 10 kts 281°
2026-04-24 22:23 20.90461 -156.42619 48 ft 11 kts 242°
2026-04-24 22:23 20.90406 -156.42683 48 ft 12 kts 216°
2026-04-24 22:23 20.90331 -156.42740 48 ft 13 kts 215°
2026-04-24 22:24 20.90249 -156.42801 48 ft 14 kts 216°
2026-04-24 22:24 20.90163 -156.42865 48 ft 15 kts 215°
2026-04-24 22:24 20.90076 -156.42931 49 ft 15 kts 215°
2026-04-24 22:24 20.89990 -156.42993 51 ft 14 kts 215°
2026-04-24 22:25 20.89909 -156.43054 53 ft 14 kts 215°
2026-04-24 22:25 20.89830 -156.43114 55 ft 13 kts 215°
2026-04-24 22:25 20.89755 -156.43169 58 ft 11 kts 214°
2026-04-24 22:25 20.89691 -156.43216 61 ft 10 kts 214°
2026-04-24 22:26 20.89633 -156.43259 63 ft 9 kts 215°
2026-04-24 22:26 20.89582 -156.43297 66 ft 7 kts 215°
2026-04-24 22:26 20.89546 -156.43324 69 ft 5 kts 215°
2026-04-24 22:26 20.89519 -156.43344 71 ft 4 kts 215°
2026-04-24 22:27 20.89485 -156.43370 73 ft 7 kts 215°
2026-04-24 22:27 20.89430 -156.43410 75 ft 11 kts 215°
2026-04-24 22:27 20.89363 -156.43460 79 ft 10 kts 215°
2026-04-24 22:27 20.89327 -156.43501 82 ft 6 kts 255°
2026-04-24 22:28 20.89346 -156.43552 79 ft 4 kts 313°
2026-04-24 22:28 20.89372 -156.43581 77 ft 5 kts 307°
2026-04-24 22:28 20.89383 -156.43597 75 ft 0 kts 305°